• In Hungary
  • List of Countries
  • For 7 days
  • Water Temperature
  • Satellite Maps
  • Weather Map
  • News
  • Weather Widgets
  • user-avatar
    Login

    Hourly Weather Hajfa

    Today, 19 January, Friday

    Time Temperature Precipitation Wind Pressure Humidity
    00:00 +11°C° 0.8 mm 15 mps 748 mmHg 75%
    01:00 +10°C° 0.8 mm 15 mps 748 mmHg 71%
    02:00 +10°C° 0 mm 14 mps 749 mmHg 67%
    03:00 +10°C° 0.9 mm 14 mps 749 mmHg 68%
    04:00 +10°C° 0.9 mm 14 mps 750 mmHg 69%
    05:00 +9°C° 0.9 mm 14 mps 750 mmHg 69%
    06:00 +10°C° 0.5 mm 14 mps 751 mmHg 68%
    07:00 +10°C° 0.5 mm 14 mps 751 mmHg 67%
    08:00 +10°C° 0 mm 12 mps 751 mmHg 68%
    09:00 +12°C° 0.3 mm 13 mps 752 mmHg 66%
    10:00 +12°C° 0.3 mm 13 mps 753 mmHg 64%
    11:00 +13°C° 0.3 mm 13 mps 754 mmHg 62%
    12:00 +13°C° 0.3 mm 13 mps 754 mmHg 61%
    13:00 +13°C° 0.3 mm 12 mps 755 mmHg 61%
    14:00 +13°C° 0.3 mm 12 mps 755 mmHg 61%
    15:00 +13°C° 0.1 mm 11 mps 756 mmHg 63%
    16:00 +12°C° 0.1 mm 9 mps 757 mmHg 64%
    17:00 +11°C° 0.1 mm 8 mps 757 mmHg 66%
    18:00 +11°C° 0 mm 7 mps 758 mmHg 67%
    19:00 +11°C° 0 mm 6 mps 759 mmHg 68%
    20:00 +10°C° 0 mm 5 mps 759 mmHg 69%
    21:00 +10°C° 0 mm 5 mps 760 mmHg 69%
    22:00 +11°C° 0 mm 4 mps 760 mmHg 68%
    23:00 +11°C° 0 mm 3 mps 761 mmHg 68%

    Tomorrow, 20 January, Saturday

    Time Temperature Precipitation Wind Pressure Humidity
    00:00 +11°C° 0 mm 3 mps 761 mmHg 67%
    01:00 +10°C° 0 mm 3 mps 761 mmHg 67%
    02:00 +10°C° 0 mm 2 mps 762 mmHg 67%
    03:00 +10°C° 0 mm 2 mps 762 mmHg 67%
    04:00 +10°C° 0 mm 2 mps 762 mmHg 67%
    05:00 +10°C° 0 mm 2 mps 762 mmHg 67%
    06:00 +10°C° 0 mm 2 mps 763 mmHg 68%
    07:00 +12°C° 0 mm 2 mps 763 mmHg 68%
    08:00 +11°C° 0 mm 3 mps 763 mmHg 68%
    09:00 +13°C° 0 mm 3 mps 763 mmHg 65%
    10:00 +14°C° 0 mm 3 mps 764 mmHg 61%
    11:00 +16°C° 0 mm 3 mps 764 mmHg 58%
    12:00 +17°C° 0 mm 3 mps 763 mmHg 58%
    13:00 +17°C° 0 mm 3 mps 763 mmHg 57%
    14:00 +18°C° 0 mm 3 mps 763 mmHg 56%
    15:00 +17°C° 0 mm 2 mps 763 mmHg 60%
    16:00 +16°C° 0 mm 2 mps 763 mmHg 64%
    17:00 +15°C° 0 mm 2 mps 763 mmHg 68%
    18:00 +14°C° 0 mm 1 mps 763 mmHg 70%
    19:00 +14°C° 0 mm 1 mps 763 mmHg 72%
    20:00 +13°C° 0 mm 1 mps 763 mmHg 73%
    21:00 +13°C° 0 mm 1 mps 763 mmHg 74%
    22:00 +13°C° 0 mm 2 mps 763 mmHg 75%
    23:00 +13°C° 0 mm 2 mps 763 mmHg 77%

    Day after tomorrow, 21 January, Sunday

    Time Temperature Precipitation Wind Pressure Humidity
    00:00 +13°C° 0 mm 2 mps 763 mmHg 76%
    01:00 +12°C° 0 mm 2 mps 763 mmHg 75%
    02:00 +12°C° 0 mm 2 mps 762 mmHg 74%
    03:00 +11°C° 0 mm 3 mps 762 mmHg 71%
    04:00 +11°C° 0 mm 3 mps 762 mmHg 68%
    05:00 +11°C° 0 mm 3 mps 761 mmHg 65%
    06:00 +11°C° 0 mm 4 mps 761 mmHg 64%
    07:00 +12°C° 0 mm 4 mps 761 mmHg 62%
    08:00 +12°C° 0 mm 4 mps 761 mmHg 61%
    09:00 +14°C° 0 mm 4 mps 761 mmHg 55%
    10:00 +17°C° 0 mm 4 mps 761 mmHg 50%
    11:00 +17°C° 0 mm 5 mps 761 mmHg 44%
    12:00 +19°C° 0 mm 4 mps 760 mmHg 43%
    13:00 +20°C° 0 mm 4 mps 759 mmHg 41%
    14:00 +21°C° 0 mm 4 mps 758 mmHg 39%
    15:00 +20°C° 0 mm 4 mps 758 mmHg 41%
    16:00 +19°C° 0 mm 3 mps 758 mmHg 43%
    17:00 +17°C° 0 mm 3 mps 757 mmHg 45%
    18:00 +17°C° 0 mm 4 mps 757 mmHg 44%
    19:00 +15°C° 0 mm 4 mps 757 mmHg 43%
    20:00 +15°C° 0 mm 4 mps 757 mmHg 42%
    21:00 +15°C° 0 mm 4 mps 757 mmHg 42%
    22:00 +14°C° 0 mm 4 mps 756 mmHg 42%
    23:00 +14°C° 0 mm 5 mps 756 mmHg 43%

    22 January, Monday

    Time Temperature Precipitation Wind Pressure Humidity
    00:00 +14°C° 0 mm 5 mps 755 mmHg 42%
    01:00 +14°C° 0 mm 5 mps 755 mmHg 41%
    02:00 +14°C° 0 mm 5 mps 754 mmHg 40%
    03:00 +13°C° 0 mm 5 mps 754 mmHg 40%
    04:00 +13°C° 0 mm 5 mps 754 mmHg 40%
    05:00 +13°C° 0 mm 6 mps 753 mmHg 39%
    06:00 +14°C° 0 mm 6 mps 754 mmHg 42%
    07:00 +14°C° 0 mm 7 mps 754 mmHg 45%
    08:00 +15°C° 0 mm 7 mps 754 mmHg 48%
    09:00 +16°C° 0 mm 8 mps 754 mmHg 47%
    10:00 +17°C° 0 mm 8 mps 754 mmHg 47%
    11:00 +19°C° 0 mm 9 mps 754 mmHg 46%
    12:00 +18°C° 0.2 mm 9 mps 754 mmHg 49%
    13:00 +18°C° 0.2 mm 9 mps 753 mmHg 52%
    14:00 +18°C° 0.2 mm 9 mps 753 mmHg 54%
    15:00 +17°C° 0.7 mm 9 mps 753 mmHg 61%
    16:00 +16°C° 0.7 mm 9 mps 753 mmHg 67%
    17:00 +15°C° 0.7 mm 8 mps 753 mmHg 74%
    18:00 +15°C° 0.7 mm 7 mps 754 mmHg 76%
    19:00 +14°C° 0.7 mm 7 mps 754 mmHg 77%
    20:00 +14°C° 0.7 mm 6 mps 755 mmHg 79%
    21:00 +14°C° 0.8 mm 6 mps 754 mmHg 79%
    22:00 +14°C° 0.8 mm 6 mps 754 mmHg 80%
    23:00 +13°C° 0.8 mm 6 mps 754 mmHg 80%

    23 January, Tuesday

    Time Temperature Precipitation Wind Pressure Humidity
    00:00 +12°C° 1 mm 7 mps 754 mmHg 81%
    01:00 +12°C° 1 mm 7 mps 754 mmHg 83%
    02:00 +12°C° 1 mm 7 mps 754 mmHg 85%
    03:00 +12°C° 0.9 mm 7 mps 754 mmHg 85%
    04:00 +12°C° 0.9 mm 8 mps 754 mmHg 85%
    05:00 +12°C° 0.9 mm 8 mps 754 mmHg 85%
    06:00 +12°C° 0.4 mm 8 mps 754 mmHg 82%
    07:00 +13°C° 0.4 mm 9 mps 755 mmHg 78%
    08:00 +13°C° 0.4 mm 10 mps 755 mmHg 75%
    09:00 +13°C° 0.1 mm 10 mps 756 mmHg 73%
    10:00 +13°C° 0.1 mm 10 mps 756 mmHg 71%
    11:00 +13°C° 0.1 mm 10 mps 756 mmHg 69%
    12:00 +13°C° 0.1 mm 10 mps 756 mmHg 67%
    13:00 +13°C° 0.1 mm 10 mps 756 mmHg 65%
    14:00 +14°C° 0.1 mm 10 mps 756 mmHg 62%
    15:00 +13°C° 0.1 mm 9 mps 756 mmHg 65%
    16:00 +13°C° 0.1 mm 8 mps 757 mmHg 68%
    17:00 +12°C° 0.1 mm 8 mps 757 mmHg 71%
    18:00 +12°C° 0 mm 7 mps 758 mmHg 71%
    19:00 +11°C° 0 mm 7 mps 758 mmHg 70%
    20:00 +11°C° 0 mm 7 mps 759 mmHg 70%
    21:00 +11°C° 0 mm 6 mps 759 mmHg 70%
    22:00 +11°C° 0 mm 6 mps 759 mmHg 70%
    23:00 +10°C° 0 mm 5 mps 759 mmHg 70%

    24 January, Wednesday

    Time Temperature Precipitation Wind Pressure Humidity
    00:00 +10°C° 0 mm 5 mps 759 mmHg 69%
    01:00 +11°C° 0 mm 4 mps 759 mmHg 68%
    02:00 +11°C° 0 mm 4 mps 759 mmHg 67%
    03:00 +11°C° 0 mm 4 mps 760 mmHg 67%
    04:00 +11°C° 0 mm 3 mps 760 mmHg 67%
    05:00 +11°C° 0 mm 3 mps 760 mmHg 66%
    06:00 +11°C° 0 mm 3 mps 760 mmHg 66%
    07:00 +12°C° 0 mm 2 mps 761 mmHg 66%
    08:00 +12°C° 0 mm 2 mps 761 mmHg 67%
    09:00 +13°C° 0 mm 2 mps 761 mmHg 65%
    10:00 +14°C° 0 mm 2 mps 761 mmHg 64%
    11:00 +14°C° 0 mm 2 mps 761 mmHg 63%
    12:00 +15°C° 0.1 mm 2 mps 761 mmHg 62%
    13:00 +15°C° 0.1 mm 2 mps 760 mmHg 62%
    14:00 +16°C° 0.1 mm 2 mps 760 mmHg 62%
    15:00 +15°C° 0 mm 2 mps 760 mmHg 65%
    16:00 +14°C° 0 mm 1 mps 760 mmHg 68%
    17:00 +14°C° 0 mm 1 mps 760 mmHg 71%
    18:00 +13°C° 0 mm 1 mps 760 mmHg 72%
    19:00 +13°C° 0 mm 1 mps 760 mmHg 73%
    20:00 +12°C° 0 mm 1 mps 761 mmHg 74%
    21:00 +12°C° 0 mm 1 mps 760 mmHg 75%
    22:00 +12°C° 0 mm 1 mps 760 mmHg 76%
    23:00 +11°C° 0 mm 1 mps 760 mmHg 77%
    Show more